Hourly Data Report for April 28, 2016

All times are specified in Local Standard Time (LST). Add 1 hour to adjust for Daylight Saving Time where and when it is observed.

EMERSON AUTO
MANITOBA

49°00'00.000" N
97°14'15.000" W
242.00 m
5020881
71560
WEX

Download Data

Hourly Data (April 2016)
Hourly Data Report for April 28, 2016
Temp Definition
°C
Dew Point Temp Definition
°C
Rel Hum Definition
%
Wind Dir Definition
10's deg

Wind Spd Definition
km/h
Visibility Definition
km
Stn Press Definition
kPa
Hmdx Definition


Wind Chill Definition


Weather Definition


TIME
00:00 6.9 -4.8 43 5 16   99.07     LegendNANA
01:00 6.0 -5.1 45 6 16   99.05     LegendNANA
02:00 4.9 -5.1 48 5 16   99.05     LegendNANA
03:00 2.8 -3.8 62 5 14   99.05     LegendNANA
04:00 2.0 -3.7 66 4 13   99.13     LegendNANA
05:00 3.5 -5.4 52 5 17   99.16     LegendNANA
06:00 3.2 -5.4 53 5 14   99.22     LegendNANA
07:00 3.9 -4.8 53 5 13   99.29     LegendNANA
08:00 5.4 -5.2 46 6 16   99.32     LegendNANA
09:00 7.2 -4.2 44 7 14   99.32     LegendNANA
10:00 9.3 -4.5 37 5 15   99.31     LegendNANA
11:00 11.2 -6.8 28 5 19   99.32     LegendNANA
12:00 12.3 -7.7 24 5 22   99.29     LegendNANA
13:00 13.1 -5.8 26 5 18   99.24     LegendNANA
14:00 14.4 -4.8 26 6 18   99.22     LegendNANA
15:00 14.5 -4.7 26 4 16   99.19     LegendNANA
16:00 15.1 -3.2 28 4 13   99.18     LegendNANA
17:00 14.4 -5.0 26 6 14   99.19     LegendNANA
18:00 13.9 -3.8 29 4 20   99.19     LegendNANA
19:00 11.4 -2.5 38 3 14   99.21     LegendNANA
20:00 9.9 -5.1 34 2 21   99.26     LegendNANA
21:00 7.6 -3.7 45 4 17   99.32     LegendNANA
22:00 6.5 -3.8 48 4 14   99.35     LegendNANA
23:00 5.2 -3.7 52 2 12   99.35     LegendNANA

Notes on Data Quality.

Legend

  • E = Estimated
  • M = Missing
  • NA = Not Available
  • ‡ = Partner data that is not subject to review by the National Climate Archives
Date modified: